Torna al catalogo

SL-14 DEB

AttivoPO
NORAD 39983·DEBRIS·🇷🇺 Russia

Lanciato Aug 18, 1987 da Plesetsk Cosmodrome

Loading…

Prossimi Passaggi (prossime 24 ore)

TLE

AggiornatoSource: Space-Track

Epoca: Sep 14, 2026, 00:46 UTC

1 39983U 87068DK  26257.03195696  .00004693  00000-0  13937-2 0  9999
2 39983  82.1406 173.8805 0034406 232.3829 140.8617 14.42778875635894

Traccia SL-14 DEB in tempo reale con AllMySat

Download on the App Store